| time (UTC) | temp F | wind direction | speed MPH | gust MPH | rain 1hr in | rain 24hr in | rain mn in | humidity % | barometer mb |
| 20260504234522 | 74 | 211 | 8.0 | 11.0 | 0.00 | 0.00 | 0.00 | 47 | 1005.8 |
| 20260504233522 | 74 | 212 | 11.0 | 16.0 | 0.00 | 0.00 | 0.00 | 48 | 1006.1 |
| 20260504232522 | 74 | 204 | 10.0 | 16.0 | 0.00 | 0.00 | 0.00 | 49 | 1006.3 |
| 20260504231542 | 74 | 205 | 11.0 | 15.0 | 0.00 | 0.00 | 0.00 | 48 | 1006.4 |
| 20260504230542 | 74 | 221 | 8.0 | 12.0 | 0.00 | 0.00 | 0.00 | 49 | 1006.5 |
| 20260504225522 | 74 | 207 | 8.0 | 11.0 | 0.00 | 0.00 | 0.00 | 50 | 1006.6 |
| 20260504224522 | 75 | 208 | 9.0 | 12.0 | 0.00 | 0.00 | 0.00 | 49 | 1006.7 |
| 20260504223522 | 75 | 201 | 9.0 | 13.0 | 0.00 | 0.00 | 0.00 | 48 | 1006.8 |
| 20260504222522 | 75 | 206 | 12.0 | 19.0 | 0.00 | 0.00 | 0.00 | 47 | 1006.9 |
| 20260504221522 | 75 | 212 | 12.0 | 17.0 | 0.00 | 0.00 | 0.00 | 47 | 1007.0 |
| 20260504220522 | 75 | 200 | 15.0 | 19.0 | 0.00 | 0.00 | 0.00 | 45 | 1007.1 |
| 20260504215522 | 76 | 217 | 12.0 | 18.0 | 0.00 | 0.00 | 0.00 | 45 | 1007.0 |
| 20260504214522 | 76 | 212 | 14.0 | 19.0 | 0.00 | 0.00 | 0.00 | 44 | 1007.0 |
| 20260504213522 | 76 | 210 | 15.0 | 21.0 | 0.00 | 0.00 | 0.00 | 43 | 1007.0 |
| 20260504212522 | 77 | 216 | 12.0 | 21.0 | 0.00 | 0.00 | 0.00 | 41 | 1006.9 |
| 20260504211522 | 77 | 209 | 12.0 | 18.0 | 0.00 | 0.00 | 0.00 | 45 | 1006.9 |
| 20260504210522 | 76 | 204 | 8.0 | 14.0 | 0.00 | 0.00 | 0.00 | 49 | 1007.1 |
| 20260504205522 | 75 | 221 | 5.0 | 7.0 | 0.00 | 0.00 | 0.00 | 50 | 1007.5 |
| 20260504204522 | 77 | 226 | 5.0 | 9.0 | 0.00 | 0.00 | 0.00 | 47 | 1007.7 |
| 20260504203522 | 78 | 249 | 4.0 | 7.0 | 0.00 | 0.00 | 0.00 | 45 | 1007.9 |
| 20260504202522 | 78 | 242 | 7.0 | 13.0 | 0.00 | 0.00 | 0.00 | 44 | 1008.1 |
| 20260504201522 | 77 | 233 | 6.0 | 9.0 | 0.00 | 0.00 | 0.00 | 46 | 1008.1 |
| 20260504200543 | 76 | 203 | 6.0 | 14.0 | 0.00 | 0.00 | 0.00 | 48 | 1008.2 |
| 20260504195522 | 77 | 210 | 8.0 | 14.0 | 0.00 | 0.00 | 0.00 | 50 | 1008.4 |
| 20260504194522 | 76 | 220 | 6.0 | 12.0 | 0.00 | 0.00 | 0.00 | 51 | 1008.6 |
| 20260504193522 | 75 | 201 | 8.0 | 12.0 | 0.00 | 0.00 | 0.00 | 53 | 1008.7 |
| 20260504192523 | 72 | 242 | 6.0 | 9.0 | 0.00 | 0.00 | 0.00 | 53 | 1008.8 |
| 20260504191522 | 72 | 222 | 4.0 | 8.0 | 0.00 | 0.00 | 0.00 | 59 | 1008.8 |
| 20260504190523 | 72 | 213 | 8.0 | 13.0 | 0.00 | 0.00 | 0.00 | 58 | 1009.0 |
| 20260504185522 | 71 | 218 | 7.0 | 9.0 | 0.00 | 0.00 | 0.00 | 62 | 1009.2 |
| 20260504184523 | 70 | 217 | 5.0 | 8.0 | 0.00 | 0.00 | 0.00 | 64 | 1009.4 |
| 20260504183543 | 68 | 216 | 4.0 | 6.0 | 0.00 | 0.00 | 0.00 | 66 | 1009.4 |
| 20260504182623 | 67 | 197 | 3.0 | 4.0 | 0.00 | 0.00 | 0.00 | 67 | 1009.4 |
| 20260504181523 | 67 | 199 | 7.0 | 9.0 | 0.00 | 0.00 | 0.00 | 67 | 1009.5 |
| 20260504180543 | 66 | 219 | 7.0 | 9.0 | 0.00 | 0.00 | 0.00 | 67 | 1009.7 |
| 20260504175523 | 67 | 223 | 5.0 | 10.0 | 0.00 | 0.00 | 0.00 | 67 | 1009.5 |
| 20260504174522 | 68 | 212 | 9.0 | 11.0 | 0.00 | 0.00 | 0.00 | 63 | 1009.2 |
| 20260504173523 | 68 | 224 | 10.0 | 12.0 | 0.00 | 0.00 | 0.00 | 62 | 1009.4 |
| 20260504172523 | 68 | 204 | 12.0 | 15.0 | 0.00 | 0.00 | 0.00 | 62 | 1009.3 |
| 20260504171523 | 68 | 210 | 10.0 | 15.0 | 0.00 | 0.00 | 0.00 | 64 | 1009.3 |
| 20260504170523 | 68 | 202 | 12.0 | 15.0 | 0.00 | 0.00 | 0.00 | 63 | 1009.2 |
| 20260504150523 | 63 | 210 | 9.0 | 11.0 | 0.00 | 0.00 | 0.00 | 68 | 1009.7 |
| 20260504140523 | 62 | 213 | 7.0 | 9.0 | 0.00 | 0.00 | 0.00 | 68 | 1009.9 |
| 20260504130523 | 58 | 175 | 5.0 | 7.0 | 0.00 | 0.00 | 0.00 | 73 | 1009.8 |
| 20260504110524 | 54 | 185 | 6.0 | 8.0 | 0.00 | 0.00 | 0.00 | 73 | 1010.1 |
| 20260504100523 | 55 | 196 | 8.0 | 13.0 | 0.00 | 0.00 | 0.00 | 66 | 1009.9 |
| 20260504081544 | 53 | 190 | 5.0 | 6.0 | 0.00 | 0.00 | 0.00 | 67 | 1010.8 |
| 20260504080524 | 53 | 189 | 5.0 | 6.0 | 0.00 | 0.00 | 0.00 | 66 | 1010.8 |
| 20260504050524 | 55 | 194 | 6.0 | 8.0 | 0.00 | 0.00 | 0.00 | 61 | 1012.7 |
| 20260504045524 | 55 | 188 | 6.0 | 8.0 | 0.00 | 0.00 | 0.00 | 61 | 1012.7 |
| 20260504044545 | 55 | 192 | 5.0 | 8.0 | 0.00 | 0.00 | 0.00 | 61 | 1012.7 |
| 20260504043524 | 55 | 188 | 6.0 | 7.0 | 0.00 | 0.00 | 0.00 | 60 | 1012.7 |
| 20260504042524 | 55 | 183 | 6.0 | 9.0 | 0.00 | 0.00 | 0.00 | 60 | 1012.6 |
| 20260504041525 | 55 | 193 | 6.0 | 7.0 | 0.00 | 0.00 | 0.00 | 60 | 1012.8 |
| 20260504040524 | 55 | 192 | 7.0 | 9.0 | 0.00 | 0.00 | 0.00 | 60 | 1012.9 |
| 20260504035545 | 55 | 198 | 6.0 | 8.0 | 0.00 | 0.00 | 0.00 | 60 | 1013.1 |
| 20260504034524 | 55 | 193 | 5.0 | 7.0 | 0.00 | 0.00 | 0.00 | 60 | 1013.2 |
| 20260504033524 | 55 | 183 | 6.0 | 8.0 | 0.00 | 0.00 | 0.00 | 59 | 1013.2 |
| 20260504032545 | 55 | 191 | 6.0 | 8.0 | 0.00 | 0.00 | 0.00 | 60 | 1013.3 |
| 20260504031544 | 55 | 193 | 5.0 | 7.0 | 0.00 | 0.00 | 0.00 | 60 | 1013.3 |
| 20260504030525 | 56 | 190 | 5.0 | 7.0 | 0.00 | 0.00 | 0.00 | 59 | 1013.4 |
| 20260504025525 | 56 | 203 | 5.0 | 7.0 | 0.00 | 0.00 | 0.00 | 58 | 1013.4 |
| 20260504024525 | 56 | 192 | 5.0 | 7.0 | 0.00 | 0.00 | 0.00 | 58 | 1013.4 |
| 20260504023525 | 57 | 194 | 6.0 | 8.0 | 0.00 | 0.00 | 0.00 | 57 | 1013.4 |
| 20260504022524 | 57 | 206 | 7.0 | 9.0 | 0.00 | 0.00 | 0.00 | 56 | 1013.4 |
| 20260504021524 | 57 | 203 | 6.0 | 8.0 | 0.00 | 0.00 | 0.00 | 57 | 1013.4 |
| 20260504020525 | 57 | 201 | 7.0 | 8.0 | 0.00 | 0.00 | 0.00 | 56 | 1013.3 |
| 20260504015524 | 57 | 196 | 7.0 | 12.0 | 0.00 | 0.00 | 0.00 | 56 | 1013.1 |
| 20260504014525 | 57 | 206 | 7.0 | 9.0 | 0.00 | 0.00 | 0.00 | 57 | 1013.1 |
| 20260504013605 | 57 | 213 | 7.0 | 10.0 | 0.00 | 0.00 | 0.00 | 57 | 1013.0 |
| 20260504012525 | 56 | 207 | 7.0 | 10.0 | 0.00 | 0.00 | 0.00 | 59 | 1013.0 |
| 20260504011525 | 57 | 197 | 7.0 | 11.0 | 0.00 | 0.00 | 0.00 | 59 | 1012.9 |
| 20260504010525 | 56 | 197 | 7.0 | 9.0 | 0.00 | 0.00 | 0.00 | 59 | 1013.1 |
| 20260504005525 | 55 | 193 | 6.0 | 8.0 | 0.00 | 0.00 | 0.00 | 61 | 1013.1 |
| 20260504004525 | 55 | 197 | 5.0 | 8.0 | 0.00 | 0.00 | 0.00 | 63 | 1012.9 |
| 20260504003525 | 54 | 194 | 7.0 | 9.0 | 0.00 | 0.00 | 0.00 | 66 | 1012.7 |
| 20260504002545 | 55 | 186 | 6.0 | 8.0 | 0.00 | 0.00 | 0.00 | 66 | 1013.0 |
| 20260504001525 | 56 | 204 | 7.0 | 11.0 | 0.00 | 0.00 | 0.00 | 60 | 1013.3 |
| 20260504000525 | 56 | 209 | 9.0 | 11.0 | 0.00 | 0.00 | 0.00 | 61 | 1013.7 |
| 20260503235525 | 56 | 191 | 7.0 | 11.0 | 0.00 | 0.00 | 0.00 | 58 | 1013.3 |